Temp
0 -0 -0 -0 0 0 0 0 1 1 2 2 3 4 5 6 7 8 9 10 11 12 14 15 16 16 17 17 17 17 17 18 17 17 17 17 17 16 16 16 16 16 16
-0 -1 -0 -0 -0 -0 -0 -0 0 1 1 1 2 2 3 4 5 6 7 8 9 10 11 14 15 16 16 17 17 17 17 17 18 17 17 16 17 16 16 16 16 16 16
-1 -1 -1 -1 -1 -1 -1 -1 -0 0 0 0 1 1 2 3 4 5 6 7 8 9 10 12 13 14 15 16 17 17 17 17 17 17 17 16 16 17 16 16 16 16 16
-1 -1 -1 -1 -1 -1 -1 -1 -1 -1 -1 -0 -0 0 2 2 3 3 4 6 7 8 10 10 12 13 14 15 16 17 17 17 17 17 17 17 16 16 16 16 16 16 16
-1 -2 -2 -2 -2 -2 -2 -1 -1 -1 -1 -1 -1 0 1 1 2 3 4 5 6 8 9 10 11 13 14 15 15 16 17 17 17 17 17 17 16 16 16 16 16 15 16
-1 -2 -2 -2 -2 -2 -2 -2 -2 -2 -2 -1 -1 -1 -0 1 2 3 3 4 5 7 9 10 11 13 14 15 15 15 16 17 17 17 17 17 16 16 16 16 16 15 16
-1 -2 -2 -2 -3 -3 -2 -2 -2 -2 -2 -2 -2 -1 -1 -0 2 2 4 4 6 6 7 8 9 10 11 13 14 15 15 16 17 17 17 17 17 16 16 16 16 16 15
-2 -2 -2 -3 -3 -3 -3 -3 -2 -2 -2 -2 -2 -2 -1 0 1 0 2 3 4 4 6 6 6 7 9 10 11 13 15 16 17 17 17 17 16 16 16 16 16 16 15
-2 -3 -3 -3 -3 -3 -3 -3 -3 -3 -3 -2 -2 -2 -2 -2 -1 0 0 1 1 2 3 3 4 4 5 7 9 11 13 14 16 17 17 16 16 16 16 16 15 15 16
-2 -3 -3 -3 -3 -3 -3 -3 -3 -3 -3 -3 -3 -3 -2 -2 -3 -2 -0 -1 -0 1 1 1 2 3 3 4 6 7 7 10 11 16 17 17 17 16 16 16 16 15 16
-3 -3 -3 -3 -3 -3 -3 -4 -4 -4 -3 -3 -3 -3 -3 -3 -2 -3 -3 -1 -1 -1 0 -0 0 1 3 4 5 5 7 7 9 13 15 16 16 17 16 15 15 15 15
-3 -3 -3 -3 -3 -4 -4 -4 -4 -4 -4 -4 -4 -4 -3 -3 -3 -3 -3 -3 -2 -2 -1 -1 -1 0 3 3 4 4 5 5 8 12 14 16 16 16 16 16 15 15 15
-4 -4 -4 -4 -4 -4 -4 -4 -4 -5 -5 -5 -4 -4 -4 -4 -3 -3 -3 -3 -3 -2 -2 -2 -1 0 2 3 2 2 4 4 4 6 9 14 16 16 16 16 16 15 15
-5 -5 -4 -4 -5 -5 -5 -5 -5 -5 -5 -5 -5 -5 -4 -4 -4 -3 -3 -3 -3 -3 -2 -2 -1 0 1 1 1 1 1 2 2 3 6 8 12 16 16 16 16 16 15
-5 -5 -5 -5 -5 -5 -5 -5 -6 -6 -6 -6 -6 -5 -5 -5 -4 -4 -4 -4 -3 -4 -3 -2 -2 -2 -1 -1 0 1 0 0 1 2 3 4 5 11 15 15 15 15 15
-6 -6 -6 -6 -6 -6 -6 -6 -6 -6 -6 -6 -6 -6 -6 -5 -5 -5 -4 -4 -4 -4 -4 -3 -3 -2 -2 -1 -1 -0 -0 -0 1 1 3 4 5 7 12 15 15 16 15
-7 -7 -7 -7 -7 -7 -7 -7 -7 -7 -7 -7 -6 -6 -6 -6 -6 -5 -5 -5 -4 -4 -4 -3 -3 -3 -3 -2 -2 -1 -0 -0 -0 1 2 4 5 5 6 12 15 15 15
-8 -8 -8 -8 -8 -7 -7 -7 -7 -7 -7 -7 -6 -6 -6 -6 -6 -6 -5 -5 -5 -5 -4 -4 -4 -4 -3 -2 -2 -2 -1 -0 0 1 1 3 5 5 5 9 12 16 16
-8 -8 -8 -8 -8 -7 -7 -7 -7 -7 -7 -6 -6 -6 -6 -6 -6 -6 -6 -5 -5 -5 -4 -4 -4 -3 -3 -3 -2 -2 -1 -0 1 1 2 3 5 5 6 9 12 14 15
-7 -8 -8 -8 -7 -7 -7 -7 -7 -7 -6 -6 -6 -6 -6 -6 -6 -6 -6 -6 -5 -5 -5 -4 -4 -4 -3 -2 -2 -2 -1 0 1 1 1 3 4 5 6 8 11 13 14
-7 -7 -7 -7 -7 -7 -7 -6 -6 -5 -5 -5 -5 -5 -6 -6 -5 -5 -6 -6 -6 -5 -5 -5 -4 -4 -3 -3 -2 -1 0 0 1 1 1 3 4 5 5 6 9 11 14
-7 -7 -7 -7 -7 -7 -6 -4 -3 -4 -3 -3 -3 -3 -5 -5 -5 -4 -4 -4 -5 -6 -5 -5 -4 -4 -3 -3 -2 -2 -0 -0 0 1 0 0 2 4 4 5 6 6 13
-8 -8 -7 -7 -7 -6 -5 -4 -3 -3 -3 -3 -3 -3 -4 -5 -4 -5 -5 -4 -3 -4 -4 -5 -5 -4 -4 -3 -3 -2 -2 -1 -0 0 -1 0 1 2 4 4 6 6 8
-8 -8 -7 -7 -7 -7 -5 -4 -4 -4 -4 -3 -3 -3 -3 -3 -4 -4 -5 -5 -5 -4 -4 -4 -4 -4 -4 -4 -3 -3 -2 -1 -1 -1 -1 -0 1 1 3 5 6 6 7
-8 -8 -7 -7 -7 -6 -6 -4 -4 -4 -4 -4 -3 -3 -3 -3 -3 -3 -3 -4 -5 -5 -4 -3 -3 -3 -3 -3 -2 -2 -2 -2 -1 -1 -0 -1 0 1 2 6 6 6 7
-8 -7 -7 -7 -7 -6 -5 -4 -4 -4 -4 -4 -4 -4 -3 -3 -3 -2 -3 -3 -3 -4 -4 -4 -3 -3 -2 -3 -2 -2 -3 -2 -2 -2 -0 -0 -0 1 1 4 4 5 4
Height
831 830 830 831 833 831 826 824 822 821 820 819 819 817 814 812 810 808 805 805 804 804 804 805 805 807 810 811 812 815 818 822 825 827 829 831 835 837 840 842 844 848 851
833 833 831 830 827 824 824 823 822 823 819 819 819 815 812 810 809 805 804 801 800 800 800 799 800 802 805 808 807 809 813 816 818 823 825 827 830 834 836 840 842 845 848
834 835 834 831 830 826 824 822 821 821 819 817 816 814 811 808 806 804 801 798 798 796 797 795 795 797 799 802 802 804 806 810 813 816 818 822 825 829 833 836 839 841 844
833 832 832 830 829 827 826 825 822 820 817 815 813 811 809 806 803 801 798 797 795 792 791 792 790 790 792 794 796 797 800 802 806 808 812 816 820 824 828 831 836 837 840
831 830 830 829 828 826 825 822 821 819 818 816 813 809 805 802 799 796 794 792 791 789 788 786 785 784 784 786 787 789 792 794 797 800 804 809 813 818 822 826 831 834 836
829 828 827 826 826 824 822 821 820 818 817 813 809 806 803 801 795 791 792 790 788 786 783 782 781 778 778 779 780 782 785 786 789 791 796 801 805 810 816 820 824 829 832
829 828 828 828 825 823 822 820 819 818 816 813 806 803 797 791 790 788 788 786 784 781 781 780 778 773 771 772 772 774 776 779 782 783 786 792 797 802 807 813 817 821 827
828 827 827 827 826 823 821 822 820 818 816 814 811 805 794 788 786 786 786 783 781 779 776 776 773 769 766 766 767 768 769 771 773 776 779 782 787 792 798 804 809 814 819
826 826 825 823 823 822 822 822 821 819 816 815 815 817 809 799 795 783 782 779 779 778 776 773 770 767 763 761 761 760 761 761 765 768 773 775 778 783 789 795 800 804 810
824 822 821 820 820 821 821 821 820 818 816 814 815 813 813 808 804 787 782 781 779 777 773 768 768 766 761 759 757 756 754 750 750 757 761 766 768 772 778 784 791 796 800
820 819 817 816 818 818 818 818 816 814 814 811 809 806 805 802 800 798 783 780 777 777 774 770 767 762 758 755 754 751 746 741 739 743 750 755 760 762 767 771 778 785 791
817 816 815 816 816 815 814 812 811 810 810 807 806 803 802 799 797 795 788 781 778 769 770 767 764 760 754 753 752 748 743 740 737 738 740 745 749 753 756 761 764 776 782
815 813 814 813 812 811 809 808 808 807 806 804 803 802 800 797 795 793 788 781 775 769 764 762 761 755 752 751 747 744 737 735 732 729 730 733 737 742 746 750 757 763 768
812 810 810 810 808 806 805 805 803 801 800 798 796 795 793 791 789 787 784 781 772 766 760 756 757 751 748 746 743 741 736 732 730 729 725 723 723 729 735 739 747 753 759
808 807 806 805 803 802 801 799 797 794 793 791 789 788 786 784 783 781 779 777 774 763 753 750 752 750 744 741 739 739 734 730 729 723 727 728 717 711 720 726 735 742 750
805 804 802 800 798 797 794 793 790 788 786 784 782 780 778 777 775 774 772 770 769 764 750 751 746 745 743 739 736 732 729 726 724 718 720 711 707 701 706 714 721 729 736
800 799 797 795 793 790 788 785 783 781 779 777 775 773 770 770 768 767 765 763 761 759 749 742 741 739 736 735 730 726 722 718 714 715 712 700 691 698 700 700 708 716 724
796 794 791 789 787 784 781 778 776 774 772 769 767 765 762 761 759 758 757 754 752 751 747 738 734 733 731 729 725 720 717 712 707 702 700 708 695 690 697 682 691 700 709
791 788 785 783 780 777 774 771 769 766 763 760 757 755 752 752 749 748 747 745 743 742 740 735 727 727 725 723 718 713 708 704 699 694 692 687 690 688 678 678 683 685 696
784 781 779 777 773 770 767 764 760 757 752 749 745 742 739 739 737 737 737 736 735 733 732 728 723 720 718 715 712 707 702 698 692 689 686 684 687 683 677 674 677 682 683
777 776 773 769 766 763 759 756 751 746 742 736 732 728 726 725 724 726 726 725 725 725 724 721 717 713 711 709 707 703 697 693 690 684 678 677 672 679 678 672 671 675 678
773 770 767 763 759 756 753 748 743 738 733 730 722 716 712 713 714 713 713 713 714 713 713 712 710 705 704 704 702 698 694 690 687 682 681 677 673 665 664 668 666 668 669
768 764 760 757 753 750 746 741 736 731 727 722 716 711 704 702 703 703 702 703 702 702 701 700 698 696 696 698 698 694 690 686 680 679 678 671 666 661 664 657 657 658 654
762 759 755 752 748 744 741 735 730 725 720 715 710 704 699 694 692 693 692 692 691 691 692 691 688 686 686 688 689 689 686 682 678 674 671 662 662 659 653 648 654 649 641
758 754 751 747 743 738 734 729 724 719 714 708 704 699 694 688 683 683 681 679 680 678 679 680 679 679 679 680 682 682 679 678 672 669 668 667 659 652 650 644 646 642 639
754 751 746 742 737 733 728 724 719 713 707 703 698 693 688 683 678 672 670 670 670 666 670 670 670 670 670 671 671 671 671 670 669 663 658 655 646 651 642 638 636 640 637
Wind_Speed
21 21 19 17 16 18 22 24 25 24 24 23 23 22 22 22 22 21 22 24 25 25 26 25 22 20 23 23 24 27 28 26 29 26 27 26 24 23 23 23 23 23 20
17 17 20 21 20 21 23 20 20 22 23 23 22 24 24 24 24 22 23 26 23 24 26 29 27 25 24 26 26 28 31 29 26 32 29 30 27 26 25 25 26 24 25
11 12 14 14 15 18 20 21 22 20 21 22 24 24 25 25 26 26 25 26 29 28 26 27 29 28 25 27 30 30 32 34 33 33 32 31 31 29 28 26 27 26 29
10 12 13 13 15 16 14 15 16 18 23 24 25 27 26 25 25 26 31 32 32 31 32 29 30 30 26 28 31 32 33 34 36 33 35 35 34 32 30 28 28 29 29
14 15 16 16 16 16 16 16 16 18 21 21 22 25 28 31 27 28 30 29 29 29 32 33 35 35 35 31 30 33 34 36 38 37 36 37 38 37 34 31 30 32 30
16 18 19 20 19 20 19 18 19 19 19 21 23 24 24 26 33 32 29 28 28 28 31 33 35 36 35 38 34 33 38 39 40 40 40 39 40 40 39 36 33 34 33
13 13 16 17 19 19 20 21 22 22 19 21 22 23 22 28 19 16 16 19 22 26 27 29 29 28 34 35 40 38 39 42 44 43 42 43 43 43 42 41 37 35 35
12 13 14 15 16 17 18 19 20 22 21 20 16 24 5 12 11 26 21 21 21 22 21 21 21 18 17 22 23 32 39 44 46 46 45 46 46 46 45 45 42 39 38
15 15 14 15 15 16 17 19 19 19 20 19 15 9 4 3 22 11 29 26 31 34 28 26 22 25 25 23 24 23 19 43 49 48 47 46 48 48 48 48 46 44 40
17 17 16 15 15 16 17 18 18 19 19 16 18 15 19 20 5 8 5 30 30 27 28 28 33 27 29 29 28 29 28 17 16 51 50 49 50 50 51 51 50 47 44
17 17 17 18 18 18 18 19 20 21 21 22 18 17 18 19 19 14 13 14 30 26 25 30 31 35 31 30 26 24 28 25 27 32 53 53 52 51 52 52 53 51 47
18 18 18 18 18 19 19 19 20 20 20 21 22 22 21 17 16 15 10 15 17 32 29 28 27 29 29 21 19 23 24 19 22 23 39 51 53 51 51 50 42 50 50
18 19 19 20 20 21 22 22 23 23 23 24 23 22 23 23 23 23 22 18 14 28 27 29 26 26 28 18 22 24 29 26 24 19 21 39 54 55 53 53 49 53 54
21 20 22 22 21 21 23 23 24 24 23 24 24 25 25 25 24 24 23 21 13 14 28 26 22 28 23 16 23 24 30 27 28 26 24 27 19 59 57 55 52 56 59
20 20 22 24 24 23 24 24 25 25 25 25 25 26 26 26 26 25 25 24 19 14 15 24 20 24 34 33 29 28 25 29 27 28 25 28 24 11 61 58 57 55 57
22 23 23 24 24 25 24 25 24 25 26 26 26 26 27 27 27 27 26 26 25 24 15 27 27 27 28 30 31 31 32 27 26 27 28 26 25 17 23 61 60 58 56
23 24 24 24 25 27 26 25 26 27 28 28 29 29 30 30 29 27 26 26 27 26 18 30 31 27 29 31 31 32 29 30 30 25 25 31 27 27 25 26 64 63 63
24 23 22 24 26 26 26 26 27 27 28 30 31 29 31 29 30 30 30 30 30 30 28 24 33 32 31 28 28 32 31 29 30 26 25 24 28 30 35 27 39 65 64
23 23 22 24 25 26 27 28 28 30 31 33 33 33 34 31 32 30 30 29 28 29 28 29 30 27 28 29 28 29 32 28 30 22 19 24 28 31 33 28 34 64 63
22 24 25 25 26 28 29 30 30 32 34 35 37 38 37 35 34 32 31 32 30 28 27 29 28 27 26 24 24 26 27 21 20 26 20 23 26 30 30 22 34 45 61
23 24 26 27 29 28 28 28 32 35 36 39 41 41 39 38 37 34 32 31 30 28 26 26 25 26 23 19 19 23 23 22 17 23 22 18 20 27 31 27 24 46 59
23 24 24 29 29 28 25 27 29 29 28 27 34 36 41 38 38 36 36 35 33 30 30 26 23 22 21 19 21 24 21 14 6 12 14 18 20 28 31 31 21 13 56
24 26 27 27 27 29 26 27 28 29 29 25 28 28 32 32 32 35 36 35 35 35 38 32 32 33 28 24 23 25 22 21 21 14 16 16 12 24 27 29 30 31 20
26 27 26 27 28 28 26 26 27 27 28 27 27 25 25 31 34 32 32 31 35 36 35 34 34 30 27 27 30 30 29 27 24 21 15 10 14 20 26 30 32 29 25
26 25 25 26 28 31 25 25 26 27 23 24 23 24 23 27 34 32 32 31 32 34 34 34 34 34 32 32 33 27 24 20 13 20 19 19 13 15 19 23 26 24 20
23 23 26 27 27 27 25 24 24 23 19 21 21 22 23 22 23 25 32 27 24 30 28 28 29 31 30 28 29 31 25 20 17 12 20 14 11 6 4 4 9 20 34
Wind_Direction
358 358 358 1 360 351 353 353 349 349 344 340 332 328 320 316 310 304 297 293 288 287 265 263 260 262 240 229 226 229 229 234 226 224 218 210 206 205 204 197 193 194 186
352 346 347 348 348 342 346 348 346 341 340 335 330 326 320 314 311 308 295 289 294 296 283 262 261 261 254 238 229 230 231 235 230 224 222 218 213 208 209 210 202 202 201
348 340 339 339 339 337 340 343 341 340 336 333 328 324 320 316 313 306 302 296 288 287 291 278 266 266 267 250 238 230 230 230 231 228 223 221 219 214 210 213 208 201 200
345 342 340 339 337 337 335 332 334 335 331 330 325 321 320 312 309 302 299 294 291 291 287 284 271 261 268 265 248 239 232 230 230 229 228 225 221 219 214 210 209 206 202
341 341 338 338 337 337 335 337 332 332 326 322 319 317 312 310 308 302 300 300 296 291 287 286 282 270 256 258 257 244 237 233 230 230 229 226 221 221 218 212 210 210 206
330 328 329 332 333 332 333 330 329 328 325 326 320 309 309 301 296 296 291 297 294 288 279 278 281 280 271 256 259 252 241 235 232 229 229 227 223 222 220 216 210 210 209
318 315 316 318 317 322 323 324 325 326 327 330 323 319 305 294 303 328 322 316 315 312 293 291 280 277 281 278 262 259 247 236 233 230 228 227 225 221 219 216 212 211 210
312 312 307 308 310 315 315 314 317 319 318 327 329 327 339 317 20 330 321 319 329 325 320 327 310 297 284 273 274 268 261 245 235 232 229 226 223 221 217 216 212 212 211
312 309 308 306 306 307 305 304 304 302 300 311 317 309 327 316 328 319 316 320 320 315 319 320 323 317 305 295 285 274 287 250 239 233 230 225 223 220 219 216 212 211 212
310 309 309 309 304 299 295 292 294 297 305 298 297 288 283 295 302 313 299 313 311 310 315 317 314 316 312 312 300 303 306 287 307 235 231 226 224 221 219 218 213 210 210
311 310 312 310 301 292 288 287 289 290 291 291 292 295 291 290 288 286 298 310 308 303 307 311 311 309 312 306 312 303 315 313 300 259 232 228 224 223 221 215 211 209 208
307 307 306 301 297 296 294 294 294 290 290 290 290 287 285 285 286 285 287 296 295 300 302 303 305 304 303 305 298 302 309 310 296 290 244 227 224 223 218 214 208 210 208
300 299 297 295 295 293 292 290 285 282 280 278 275 275 275 273 276 279 281 287 290 295 297 297 299 298 300 292 301 310 300 313 330 319 289 244 225 222 219 213 214 212 211
296 295 293 291 290 291 289 286 285 282 279 277 276 273 272 272 271 271 274 283 288 287 290 290 297 299 294 304 314 318 314 312 314 321 313 293 254 224 221 215 214 211 212
296 294 291 293 292 289 286 286 284 280 278 276 273 272 272 274 272 270 271 274 278 287 282 290 291 293 299 311 311 312 310 315 307 307 309 303 313 268 218 218 214 212 214
296 293 292 291 290 288 286 285 283 279 275 273 272 270 268 269 270 269 266 268 269 273 282 283 286 289 294 298 304 304 306 304 301 301 296 310 318 309 255 219 220 220 216
293 292 290 291 290 290 288 282 277 276 272 271 268 266 266 266 267 268 266 263 265 265 271 281 282 287 292 295 296 301 297 299 302 288 290 301 320 309 301 228 219 219 217
294 289 291 291 289 288 286 280 278 274 272 269 267 264 263 264 263 262 262 260 259 262 269 278 282 285 283 284 292 295 292 290 293 289 294 283 298 310 300 256 219 217 216
291 293 293 290 288 286 284 281 276 274 270 268 267 264 262 259 259 257 258 259 257 259 263 267 275 277 281 285 287 288 289 283 292 286 285 296 294 303 310 271 229 217 215
295 301 297 292 291 287 282 279 276 271 267 266 264 259 256 252 252 253 253 255 258 259 262 266 272 277 280 282 282 288 287 281 289 295 289 287 281 293 303 298 248 225 213
304 299 298 296 295 290 285 281 278 272 268 266 264 260 255 249 249 250 250 250 250 254 257 262 266 272 271 276 278 285 287 293 294 302 285 279 288 285 298 325 264 230 224
308 307 301 300 297 294 293 293 290 289 291 291 282 268 254 253 252 252 254 253 245 237 244 249 257 262 267 267 273 275 283 293 295 285 304 295 296 294 303 309 290 317 222
309 307 307 305 300 302 301 298 298 303 302 301 303 302 267 246 250 248 251 256 259 255 250 241 240 248 256 257 271 283 295 300 296 286 310 297 297 298 294 304 309 304 259
308 306 303 307 306 301 301 301 303 307 308 309 303 301 294 258 250 246 244 244 244 248 252 257 262 266 262 251 251 262 275 280 282 293 295 294 297 283 298 298 302 321 296
305 303 309 307 304 304 306 305 306 308 304 309 309 308 307 282 263 260 255 238 241 243 244 250 254 257 261 259 258 260 261 272 278 283 283 262 267 297 284 297 303 327 275
300 303 305 311 309 303 312 309 309 315 307 313 315 316 315 310 314 291 255 247 243 243 239 245 249 256 260 263 259 254 255 257 266 284 275 250 281 299 308 289 284 312 345